,,,PA_Meas_PMT16A,,PR_Meas_QMR101_102,,RH_Meas_QMH101,,SR_Meas_QMS101,,TA_Meas_QMH101,,GenWind,,GenWind,
date,time,status,PA,status,PR,status,RH,status,SR,status,TA,status,DirAvg,status,SpdAvg,
2009-06-24, 00:00:05,VALID,1005.08,VALID,0,VALID,93.9878,VALID,0,VALID,23.8769,VALID,80,VALID,0,
2009-06-24, 00:01:05,VALID,1005.05,VALID,0,VALID,94.0717,VALID,0,VALID,23.8964,VALID,80,VALID,0,
2009-06-24, 00:02:05,VALID,1005.07,VALID,0,VALID,93.9191,VALID,0.100563,VALID,23.8398,VALID,80,VALID,0,
2009-06-24, 00:03:05,VALID,1005.02,VALID,0,VALID,93.9344,VALID,0,VALID,23.7991,VALID,80,VALID,0,
2009-06-24, 00:04:05,VALID,1004.97,VALID,0,VALID,93.9878,VALID,0,VALID,23.7601,VALID,80,VALID,0,
2009-06-24, 00:05:05,VALID,1004.96,VALID,0,VALID,94.0259,VALID,0.100563,VALID,23.7814,VALID,80,VALID,0,
2009-06-24, 00:06:05,VALID,1004.94,VALID,0,VALID,94.0336,VALID,0,VALID,23.7619,VALID,80,VALID,0,
2009-06-24, 00:07:05,VALID,1004.95,VALID,0,VALID,94.0794,VALID,0,VALID,23.6805,VALID,80,VALID,0,
2009-06-24, 00:08:05,VALID,1004.91,VALID,0,VALID,94.0717,VALID,0,VALID,23.6823,VALID,80,VALID,0,
2009-06-24, 00:09:05,VALID,1004.95,VALID,0,VALID,94.1404,VALID,0,VALID,23.7035,VALID,80,VALID,0,
2009-06-24, 00:10:05,VALID,1004.91,VALID,0,VALID,94.1556,VALID,0.100563,VALID,23.6628,VALID,80,VALID,0,
2009-06-24, 00:11:05,VALID,1004.92,VALID,0,VALID,94.1862,VALID,0.100563,VALID,23.6434,VALID,80,VALID,0,
2009-06-24, 00:12:05,VALID,1004.91,VALID,0,VALID,94.209,VALID,0,VALID,23.6469,VALID,80,VALID,0,
2009-06-24, 00:13:05,VALID,1004.91,VALID,0,VALID,94.2548,VALID,0,VALID,23.6664,VALID,80,VALID,0,
2009-06-24, 00:14:05,VALID,1004.91,VALID,0,VALID,94.2472,VALID,0,VALID,23.6469,VALID,80,VALID,0,
2009-06-24, 00:15:05,VALID,1004.89,VALID,0,VALID,94.2624,VALID,0,VALID,23.6062,VALID,80,VALID,0,
2009-06-24, 00:16:05,VALID,1004.9,VALID,0,VALID,94.2624,VALID,0,VALID,23.608,VALID,80,VALID,0,
2009-06-24, 00:17:05,VALID,1004.87,VALID,0,VALID,94.293,VALID,0,VALID,23.5885,VALID,80,VALID,0,
2009-06-24, 00:18:05,VALID,1004.87,VALID,0,VALID,94.3311,VALID,0,VALID,23.5868,VALID,80,VALID,0.00429688,
2009-06-24, 00:19:05,VALID,1004.85,VALID,0,VALID,94.415,VALID,0,VALID,23.6062,VALID,64,VALID,0.585547,
2009-06-24, 00:20:05,VALID,1004.83,VALID,0,VALID,94.4684,VALID,0,VALID,23.6452,VALID,50,VALID,0.480078,
2009-06-24, 00:21:05,VALID,1004.79,VALID,0,VALID,94.4684,VALID,0,VALID,23.6664,VALID,30,VALID,0.414453,
2009-06-24, 00:22:05,VALID,1004.75,VALID,0,VALID,94.5066,VALID,0,VALID,23.6257,VALID,30,VALID,0.395312,
2009-06-24, 00:23:05,VALID,1004.74,VALID,0,VALID,94.5447,VALID,0,VALID,23.6452,VALID,30,VALID,0.386328,
2009-06-24, 00:24:05,VALID,1004.7,VALID,0,VALID,94.5981,VALID,0,VALID,23.6859,VALID,15,VALID,0.495313,
2009-06-24, 00:25:05,VALID,1004.68,VALID,0,VALID,94.6439,VALID,0,VALID,23.723,VALID,2,VALID,0.673047,
2009-06-24, 00:26:05,VALID,1004.67,VALID,0,VALID,94.6591,VALID,0,VALID,23.7637,VALID,1,VALID,0.554297,
2009-06-24, 00:27:05,VALID,1004.65,VALID,0,VALID,94.6439,VALID,0,VALID,23.7637,VALID,344,VALID,0.708594,
2009-06-24, 00:28:05,VALID,1004.62,VALID,0,VALID,94.6134,VALID,0,VALID,23.7035,VALID,344,VALID,0.623438,
2009-06-24, 00:29:05,VALID,1004.64,VALID,0,VALID,94.6134,VALID,0,VALID,23.6859,VALID,344,VALID,0.490625,
2009-06-24, 00:30:05,VALID,1004.63,VALID,0,VALID,94.5829,VALID,0,VALID,23.6664,VALID,344,VALID,0.546875,
2009-06-24, 00:31:05,VALID,1004.67,VALID,0,VALID,94.5981,VALID,0,VALID,23.6452,VALID,344,VALID,0.41875,
2009-06-24, 00:32:05,VALID,1004.67,VALID,0,VALID,94.5905,VALID,0,VALID,23.6257,VALID,344,VALID,0.351563,
2009-06-24, 00:33:05,VALID,1004.66,VALID,0,VALID,94.56,VALID,0,VALID,23.5868,VALID,344,VALID,0.365234,
2009-06-24, 00:34:05,VALID,1004.68,VALID,0,VALID,94.5447,VALID,0,VALID,23.5496,VALID,344,VALID,0.351172,
2009-06-24, 00:35:05,VALID,1004.66,VALID,0,VALID,94.5371,VALID,0,VALID,23.5284,VALID,344,VALID,0.422656,
2009-06-24, 00:36:05,VALID,1004.66,VALID,0,VALID,94.5905,VALID,0,VALID,23.5496,VALID,344,VALID,0.526172,
2009-06-24, 00:37:05,VALID,1004.62,VALID,0,VALID,94.6134,VALID,0,VALID,23.5673,VALID,344,VALID,0.616016,
2009-06-24, 00:38:05,VALID,1004.65,VALID,0,VALID,94.6897,VALID,0,VALID,23.5868,VALID,344,VALID,0.467578,
2009-06-24, 00:39:05,VALID,1004.67,VALID,0,VALID,94.7125,VALID,0,VALID,23.6062,VALID,344,VALID,0.403906,
2009-06-24, 00:40:05,VALID,1004.69,VALID,0,VALID,94.7125,VALID,0,VALID,23.608,VALID,344,VALID,0.317187,
2009-06-24, 00:41:05,VALID,1004.71,VALID,0,VALID,94.6973,VALID,0,VALID,23.5478,VALID,344,VALID,0.0046875,
2009-06-24, 00:42:05,VALID,1004.73,VALID,0,VALID,94.6668,VALID,0,VALID,23.5478,VALID,344,VALID,0,
2009-06-24, 00:43:05,VALID,1004.73,VALID,0,VALID,94.682,VALID,0,VALID,23.5071,VALID,344,VALID,0,
2009-06-24, 00:44:05,VALID,1004.73,VALID,0,VALID,94.6744,VALID,0,VALID,23.5284,VALID,344,VALID,0,
2009-06-24, 00:45:05,VALID,1004.74,VALID,0,VALID,94.682,VALID,0,VALID,23.4894,VALID,344,VALID,0,
2009-06-24, 00:46:05,VALID,1004.76,VALID,0,VALID,94.7202,VALID,0,VALID,23.5284,VALID,344,VALID,0,
2009-06-24, 00:47:05,VALID,1004.75,VALID,0,VALID,94.7354,VALID,0,VALID,23.5284,VALID,344,VALID,0,
2009-06-24, 00:48:05,VALID,1004.76,VALID,0,VALID,94.7507,VALID,0,VALID,23.4894,VALID,344,VALID,0,
2009-06-24, 00:49:05,VALID,1004.73,VALID,0,VALID,94.7202,VALID,0,VALID,23.47,VALID,344,VALID,0,
2009-06-24, 00:50:05,VALID,1004.75,VALID,0,VALID,94.7049,VALID,0,VALID,23.4311,VALID,344,VALID,0,
2009-06-24, 00:51:05,VALID,1004.72,VALID,0,VALID,94.6973,VALID,0,VALID,23.3709,VALID,344,VALID,0,
2009-06-24, 00:52:05,VALID,1004.71,VALID,0,VALID,94.6897,VALID,0,VALID,23.3709,VALID,344,VALID,0,
2009-06-24, 00:53:05,VALID,1004.74,VALID,0,VALID,94.6744,VALID,0,VALID,23.3532,VALID,344,VALID,0.407813,
2009-06-24, 00:54:05,VALID,1004.72,VALID,0,VALID,94.6973,VALID,0,VALID,23.3125,VALID,344,VALID,0.284766,
2009-06-24, 00:55:05,VALID,1004.74,VALID,0,VALID,94.6744,VALID,0,VALID,23.3337,VALID,344,VALID,0.308984,
2009-06-24, 00:56:05,VALID,1004.72,VALID,0,VALID,94.7125,VALID,0,VALID,23.3337,VALID,344,VALID,0.169141,
2009-06-24, 00:57:05,VALID,1004.72,VALID,0,VALID,94.7278,VALID,0,VALID,23.3125,VALID,344,VALID,0,
2009-06-24, 00:58:05,VALID,1004.71,VALID,0,VALID,94.7278,VALID,0,VALID,23.3143,VALID,344,VALID,0,
2009-06-24, 00:59:05,VALID,1004.7,VALID,0,VALID,94.7507,VALID,0,VALID,23.2754,VALID,344,VALID,0,
2009-06-24, 01:00:05,VALID,1004.72,VALID,0,VALID,94.7278,VALID,0,VALID,23.2754,VALID,344,VALID,0.0269531,
2009-06-24, 01:01:05,VALID,1004.7,VALID,0,VALID,94.7431,VALID,0,VALID,23.2948,VALID,344,VALID,0.128906,
2009-06-24, 01:02:05,VALID,1004.74,VALID,0,VALID,94.7583,VALID,0,VALID,23.3143,VALID,1,VALID,0.211719,
2009-06-24, 01:03:05,VALID,1004.69,VALID,0,VALID,94.766,VALID,0,VALID,23.2948,VALID,10,VALID,0,
2009-06-24, 01:04:05,VALID,1004.75,VALID,0,VALID,94.7812,VALID,0,VALID,23.2948,VALID,10,VALID,0.23125,
2009-06-24, 01:05:05,VALID,1004.75,VALID,0,VALID,94.8194,VALID,0,VALID,23.3143,VALID,10,VALID,0.331641,
2009-06-24, 01:06:05,VALID,1004.74,VALID,0,VALID,94.7888,VALID,0,VALID,23.2948,VALID,10,VALID,0.316016,
2009-06-24, 01:07:05,VALID,1004.74,VALID,0,VALID,94.8041,VALID,0,VALID,23.3355,VALID,10,VALID,0.170312,
2009-06-24, 01:08:05,VALID,1004.74,VALID,0,VALID,94.8041,VALID,0,VALID,23.2948,VALID,10,VALID,0.137109,
2009-06-24, 01:09:05,VALID,1004.75,VALID,0,VALID,94.8117,VALID,0,VALID,23.2948,VALID,10,VALID,0.163281,
2009-06-24, 01:10:05,VALID,1004.74,VALID,0,VALID,94.8117,VALID,0,VALID,23.2559,VALID,10,VALID,0.139453,
2009-06-24, 01:11:05,VALID,1004.72,VALID,0,VALID,94.7736,VALID,0,VALID,23.2347,VALID,10,VALID,0.0550781,
2009-06-24, 01:12:05,VALID,1004.74,VALID,0,VALID,94.7736,VALID,0.100563,VALID,23.2347,VALID,10,VALID,0,
2009-06-24, 01:13:05,VALID,1004.72,VALID,0,VALID,94.7583,VALID,0.100563,VALID,23.2152,VALID,10,VALID,0.046875,
2009-06-24, 01:14:05,VALID,1004.7,VALID,0,VALID,94.7354,VALID,0.100563,VALID,23.1957,VALID,10,VALID,0,
2009-06-24, 01:15:05,VALID,1004.69,VALID,0,VALID,94.7431,VALID,0.100563,VALID,23.1551,VALID,10,VALID,0.2875,
2009-06-24, 01:16:05,VALID,1004.66,VALID,0,VALID,94.7354,VALID,0.100563,VALID,23.1568,VALID,10,VALID,0.234375,
2009-06-24, 01:17:05,VALID,1004.65,VALID,0,VALID,94.7431,VALID,0.100563,VALID,23.1374,VALID,10,VALID,0.133203,
2009-06-24, 01:18:05,VALID,1004.61,VALID,0,VALID,94.6973,VALID,0.100563,VALID,23.1179,VALID,10,VALID,0.200391,
2009-06-24, 01:19:05,VALID,1004.59,VALID,0,VALID,94.6744,VALID,0.100563,VALID,23.0772,VALID,10,VALID,0.219922,
2009-06-24, 01:20:05,VALID,1004.58,VALID,0,VALID,94.6897,VALID,0.100563,VALID,23.0595,VALID,10,VALID,0.233203,
2009-06-24, 01:21:05,VALID,1004.6,VALID,0,VALID,94.6668,VALID,0.100563,VALID,23.0613,VALID,10,VALID,0.182031,
2009-06-24, 01:22:05,VALID,1004.59,VALID,0,VALID,94.6897,VALID,0.100563,VALID,23.0401,VALID,10,VALID,0.164063,
2009-06-24, 01:23:05,VALID,1004.55,VALID,0,VALID,94.6897,VALID,0,VALID,23.0189,VALID,10,VALID,0.289453,
2009-06-24, 01:24:05,VALID,1004.6,VALID,0,VALID,94.7049,VALID,0.100563,VALID,23.0401,VALID,10,VALID,0.272266,
2009-06-24, 01:25:05,VALID,1004.59,VALID,0,VALID,94.7202,VALID,0.100563,VALID,23.0383,VALID,10,VALID,0.205859,
2009-06-24, 01:26:05,VALID,1004.6,VALID,0,VALID,94.7278,VALID,0.100563,VALID,23.0401,VALID,10,VALID,0.183984,
2009-06-24, 01:27:05,VALID,1004.61,VALID,0,VALID,94.7431,VALID,0,VALID,23.0613,VALID,10,VALID,0.248828,
2009-06-24, 01:28:05,VALID,1004.58,VALID,0,VALID,94.7431,VALID,0,VALID,23.0595,VALID,10,VALID,0.213672,
2009-06-24, 01:29:05,VALID,1004.61,VALID,0,VALID,94.7583,VALID,0.100563,VALID,23.0595,VALID,10,VALID,0.262109,
2009-06-24, 01:30:05,VALID,1004.63,VALID,0,VALID,94.7354,VALID,0,VALID,23.0595,VALID,10,VALID,0.236328,
2009-06-24, 01:31:05,VALID,1004.61,VALID,0,VALID,94.7583,VALID,0,VALID,23.0807,VALID,10,VALID,0.181641,
2009-06-24, 01:32:05,VALID,1004.6,VALID,0,VALID,94.7278,VALID,0,VALID,23.0807,VALID,10,VALID,0.207031,
2009-06-24, 01:33:05,VALID,1004.61,VALID,0,VALID,94.7431,VALID,0,VALID,23.0613,VALID,10,VALID,0.2,
2009-06-24, 01:34:05,VALID,1004.6,VALID,0,VALID,94.6897,VALID,0,VALID,23.0206,VALID,10,VALID,0.182422,
2009-06-24, 01:35:05,VALID,1004.64,VALID,0,VALID,94.682,VALID,0,VALID,23.0029,VALID,10,VALID,0.173828,
2009-06-24, 01:36:05,VALID,1004.61,VALID,0,VALID,94.6439,VALID,0,VALID,22.9622,VALID,10,VALID,0.18125,
2009-06-24, 01:37:05,VALID,1004.62,VALID,0,VALID,94.6515,VALID,0,VALID,22.9622,VALID,10,VALID,0.241016,
2009-06-24, 01:38:05,VALID,1004.61,VALID,0,VALID,94.621,VALID,0,VALID,22.9428,VALID,10,VALID,0.180859,
2009-06-24, 01:39:05,VALID,1004.61,VALID,0,VALID,94.6439,VALID,0,VALID,22.9251,VALID,10,VALID,0.0117188,
2009-06-24, 01:40:05,VALID,1004.61,VALID,0,VALID,94.6439,VALID,0,VALID,22.8844,VALID,10,VALID,0.204688,
2009-06-24, 01:41:05,VALID,1004.6,VALID,0,VALID,94.6515,VALID,0.100563,VALID,22.9039,VALID,10,VALID,0.206641,
2009-06-24, 01:42:05,VALID,1004.6,VALID,0,VALID,94.6591,VALID,0,VALID,22.9056,VALID,10,VALID,0.360547,
2009-06-24, 01:43:05,VALID,1004.6,VALID,0,VALID,94.7049,VALID,0,VALID,22.9445,VALID,10,VALID,0.384375,
2009-06-24, 01:44:05,VALID,1004.59,VALID,0,VALID,94.7278,VALID,0,VALID,22.9233,VALID,10,VALID,0.384766,
2009-06-24, 01:45:05,VALID,1004.6,VALID,0,VALID,94.7202,VALID,0.100563,VALID,22.9039,VALID,10,VALID,0.382031,
2009-06-24, 01:46:05,VALID,1004.61,VALID,0,VALID,94.7278,VALID,0,VALID,22.8844,VALID,10,VALID,0.428906,
2009-06-24, 01:47:05,VALID,1004.58,VALID,0,VALID,94.7202,VALID,0,VALID,22.8861,VALID,10,VALID,0.329688,
2009-06-24, 01:48:05,VALID,1004.57,VALID,0,VALID,94.7202,VALID,0,VALID,22.8861,VALID,10,VALID,0.429297,
2009-06-24, 01:49:05,VALID,1004.56,VALID,0,VALID,94.766,VALID,0,VALID,22.8861,VALID,10,VALID,0.395312,
2009-06-24, 01:50:05,VALID,1004.57,VALID,0,VALID,94.7812,VALID,0,VALID,22.8455,VALID,10,VALID,0.335938,
2009-06-24, 01:51:05,VALID,1004.57,VALID,0,VALID,94.7736,VALID,0.100563,VALID,22.8649,VALID,10,VALID,0.383984,
2009-06-24, 01:52:05,VALID,1004.56,VALID,0,VALID,94.827,VALID,0.100563,VALID,22.9251,VALID,10,VALID,0.349609,
2009-06-24, 01:53:05,VALID,1004.55,VALID,0,VALID,94.8499,VALID,0,VALID,22.9039,VALID,10,VALID,0.243359,
2009-06-24, 01:54:05,VALID,1004.52,VALID,0,VALID,94.9185,VALID,0,VALID,22.9622,VALID,10,VALID,0,
2009-06-24, 01:55:05,VALID,1004.54,VALID,0,VALID,94.9338,VALID,0.100563,VALID,22.9817,VALID,10,VALID,0,
2009-06-24, 01:56:05,VALID,1004.51,VALID,0,VALID,94.9262,VALID,0.100563,VALID,22.9428,VALID,10,VALID,0,
2009-06-24, 01:57:05,VALID,1004.5,VALID,0,VALID,94.9033,VALID,0,VALID,22.941,VALID,10,VALID,0,
2009-06-24, 01:58:05,VALID,1004.49,VALID,0,VALID,94.8956,VALID,0,VALID,22.9834,VALID,10,VALID,0,
2009-06-24, 01:59:05,VALID,1004.5,VALID,0,VALID,94.9338,VALID,0,VALID,23.0029,VALID,10,VALID,0.238672,
2009-06-24, 02:00:05,VALID,1004.48,VALID,0,VALID,94.9185,VALID,0,VALID,23.0224,VALID,10,VALID,0,
2009-06-24, 02:01:05,VALID,1004.47,VALID,0,VALID,94.9262,VALID,0,VALID,23.0012,VALID,10,VALID,0,
2009-06-24, 02:02:04,VALID,1004.46,VALID,0,VALID,94.9262,VALID,0.100563,VALID,23.0224,VALID,10,VALID,0,
2009-06-24, 02:03:04,VALID,1004.42,VALID,0,VALID,94.9414,VALID,0.100563,VALID,23.0012,VALID,10,VALID,0.0914062,
2009-06-24, 02:04:04,VALID,1004.43,VALID,0,VALID,94.9033,VALID,0,VALID,22.964,VALID,10,VALID,0.396875,
2009-06-24, 02:05:04,VALID,1004.4,VALID,0,VALID,94.8956,VALID,0.100563,VALID,22.9834,VALID,10,VALID,0.230469,
2009-06-24, 02:06:04,VALID,1004.38,VALID,0,VALID,94.9185,VALID,0.100563,VALID,22.9817,VALID,10,VALID,0.385938,
2009-06-24, 02:07:04,VALID,1004.37,VALID,0,VALID,94.9262,VALID,0,VALID,22.9622,VALID,10,VALID,0.333594,
2009-06-24, 02:08:04,VALID,1004.33,VALID,0,VALID,94.9338,VALID,0,VALID,22.9622,VALID,10,VALID,0.355859,
2009-06-24, 02:09:04,VALID,1004.32,VALID,0,VALID,94.9414,VALID,0,VALID,23.0029,VALID,10,VALID,0.198437,
2009-06-24, 02:10:04,VALID,1004.3,VALID,0,VALID,94.9567,VALID,0,VALID,22.9817,VALID,10,VALID,0.2625,
2009-06-24, 02:11:04,VALID,1004.3,VALID,0,VALID,94.9796,VALID,0,VALID,23.0224,VALID,10,VALID,0.170703,
2009-06-24, 02:12:04,VALID,1004.3,VALID,0,VALID,94.9567,VALID,0,VALID,23.0029,VALID,10,VALID,0.198047,
2009-06-24, 02:13:04,VALID,1004.28,VALID,0,VALID,94.9948,VALID,0,VALID,23.0224,VALID,10,VALID,0.111719,
2009-06-24, 02:14:04,VALID,1004.25,VALID,0,VALID,94.9719,VALID,0,VALID,23.0224,VALID,10,VALID,0.218359,
2009-06-24, 02:15:04,VALID,1004.26,VALID,0,VALID,94.9872,VALID,0,VALID,23.0418,VALID,10,VALID,0.257422,
2009-06-24, 02:16:04,VALID,1004.24,VALID,0,VALID,95.0024,VALID,0,VALID,23.0012,VALID,10,VALID,0.529297,
2009-06-24, 02:17:04,VALID,1004.21,VALID,0,VALID,95.0101,VALID,0,VALID,23.0206,VALID,10,VALID,0.430469,
2009-06-24, 02:18:04,VALID,1004.2,VALID,0,VALID,95.0406,VALID,0,VALID,23.0401,VALID,10,VALID,0.303906,
2009-06-24, 02:19:04,VALID,1004.19,VALID,0,VALID,95.0635,VALID,0,VALID,23.0595,VALID,10,VALID,0.291016,
2009-06-24, 02:20:04,VALID,1004.16,VALID,0,VALID,95.0406,VALID,0,VALID,23.0401,VALID,10,VALID,0.250781,
2009-06-24, 02:21:04,VALID,1004.16,VALID,0,VALID,95.0406,VALID,0,VALID,23.0418,VALID,10,VALID,0.237891,
2009-06-24, 02:22:04,VALID,1004.11,VALID,0,VALID,95.0253,VALID,0,VALID,23.0029,VALID,10,VALID,0.325781,
2009-06-24, 02:23:04,VALID,1004.11,VALID,0,VALID,95.033,VALID,0,VALID,23.0206,VALID,10,VALID,0.297656,
2009-06-24, 02:24:04,VALID,1004.1,VALID,0,VALID,95.0406,VALID,0,VALID,23.0206,VALID,10,VALID,0.325391,
2009-06-24, 02:25:04,VALID,1004.06,VALID,0,VALID,95.033,VALID,0,VALID,23.0224,VALID,10,VALID,0.334766,
2009-06-24, 02:26:04,VALID,1004.06,VALID,0,VALID,95.0635,VALID,0,VALID,23.0401,VALID,10,VALID,0.335156,
2009-06-24, 02:27:04,VALID,1004.06,VALID,0,VALID,95.1016,VALID,0,VALID,23.1798,VALID,6,VALID,0.496875,
2009-06-24, 02:28:04,VALID,1004.03,VALID,0,VALID,95.1779,VALID,0,VALID,23.2559,VALID,1,VALID,0.302344,
2009-06-24, 02:29:04,VALID,1004.01,VALID,0,VALID,95.1779,VALID,0,VALID,23.2364,VALID,1,VALID,0.475781,
2009-06-24, 02:30:04,VALID,1004.02,VALID,0,VALID,95.1932,VALID,0,VALID,23.3337,VALID,354,VALID,0.544531,
2009-06-24, 02:31:04,VALID,1004.01,VALID,0,VALID,95.1932,VALID,0,VALID,23.3143,VALID,353,VALID,0.314453,
2009-06-24, 02:32:04,VALID,1004.01,VALID,0,VALID,95.1703,VALID,0,VALID,23.2364,VALID,353,VALID,0.242969,
2009-06-24, 02:33:04,VALID,1004,VALID,0,VALID,95.1169,VALID,0,VALID,23.1568,VALID,353,VALID,0.254687,
2009-06-24, 02:34:04,VALID,1004,VALID,0,VALID,95.094,VALID,0,VALID,23.1391,VALID,353,VALID,0,
2009-06-24, 02:35:04,VALID,1004.01,VALID,0,VALID,95.0864,VALID,0,VALID,23.1586,VALID,353,VALID,0,
2009-06-24, 02:36:04,VALID,1004.01,VALID,0,VALID,95.0711,VALID,0,VALID,23.1374,VALID,353,VALID,0,
2009-06-24, 02:37:04,VALID,1003.99,VALID,0,VALID,95.0635,VALID,0,VALID,23.0807,VALID,354,VALID,0,
2009-06-24, 02:38:04,VALID,1004.02,VALID,0,VALID,95.0253,VALID,0,VALID,23.0418,VALID,354,VALID,0,
2009-06-24, 02:39:04,VALID,1004,VALID,0,VALID,95.0406,VALID,0,VALID,23.0825,VALID,354,VALID,0,
2009-06-24, 02:40:04,VALID,1004.03,VALID,0,VALID,95.0101,VALID,0,VALID,23.0241,VALID,353,VALID,0,
2009-06-24, 02:41:04,VALID,1004.02,VALID,0,VALID,95.0024,VALID,0,VALID,22.9817,VALID,353,VALID,0.39375,
2009-06-24, 02:42:04,VALID,1004.04,VALID,0,VALID,95.0253,VALID,0,VALID,23.0012,VALID,354,VALID,0.507813,
2009-06-24, 02:43:04,VALID,1004.07,VALID,0,VALID,95.0482,VALID,0,VALID,23.0012,VALID,353,VALID,0.536719,
2009-06-24, 02:44:04,VALID,1004.07,VALID,0,VALID,95.0864,VALID,0,VALID,23.0613,VALID,354,VALID,0.574609,
2009-06-24, 02:45:04,VALID,1004.11,VALID,0,VALID,95.1016,VALID,0,VALID,23.0613,VALID,354,VALID,0.401953,
2009-06-24, 02:46:04,VALID,1004.1,VALID,0,VALID,95.1093,VALID,0,VALID,23.0401,VALID,353,VALID,0.316406,
2009-06-24, 02:47:04,VALID,1004.11,VALID,0,VALID,95.1093,VALID,0,VALID,23.0613,VALID,353,VALID,0.292578,
2009-06-24, 02:48:04,VALID,1004.15,VALID,0,VALID,95.1093,VALID,0,VALID,23.0807,VALID,353,VALID,0.216406,
2009-06-24, 02:49:04,VALID,1004.16,VALID,0,VALID,95.1321,VALID,0,VALID,23.1002,VALID,353,VALID,0.219922,
2009-06-24, 02:50:04,VALID,1004.14,VALID,0,VALID,95.1398,VALID,0,VALID,23.0418,VALID,354,VALID,0.335938,
2009-06-24, 02:51:04,VALID,1004.12,VALID,0,VALID,95.1321,VALID,0,VALID,23.0613,VALID,353,VALID,0.386328,
2009-06-24, 02:52:04,VALID,1004.12,VALID,0,VALID,95.1016,VALID,0,VALID,23.0418,VALID,354,VALID,0.346484,
2009-06-24, 02:53:04,VALID,1004.11,VALID,0,VALID,95.1093,VALID,0,VALID,23.0224,VALID,353,VALID,0.410547,
2009-06-24, 02:54:04,VALID,1004.12,VALID,0,VALID,95.1093,VALID,0,VALID,23.0206,VALID,355,VALID,0.527344,
2009-06-24, 02:55:04,VALID,1004.07,VALID,0,VALID,95.1093,VALID,0,VALID,23.0224,VALID,355,VALID,0.373437,
2009-06-24, 02:56:04,VALID,1004.08,VALID,0,VALID,95.1093,VALID,0,VALID,23.0029,VALID,355,VALID,0.311719,
2009-06-24, 02:57:04,VALID,1004.1,VALID,0,VALID,95.094,VALID,0,VALID,22.964,VALID,355,VALID,0.44375,
2009-06-24, 02:58:04,VALID,1004.06,VALID,0,VALID,95.094,VALID,0,VALID,22.9834,VALID,357,VALID,0.286719,
2009-06-24, 02:59:04,VALID,1004.06,VALID,0,VALID,95.1093,VALID,0,VALID,23.0029,VALID,357,VALID,0.352734,
2009-06-24, 03:00:04,VALID,1004.05,VALID,0,VALID,95.1321,VALID,0,VALID,23.0401,VALID,357,VALID,0.36875,
2009-06-24, 03:01:04,VALID,1004.09,VALID,0,VALID,95.1398,VALID,0,VALID,23.0807,VALID,357,VALID,0.391406,
2009-06-24, 03:02:04,VALID,1004.09,VALID,0,VALID,95.1703,VALID,0,VALID,23.0984,VALID,26,VALID,0.537891,
2009-06-24, 03:03:04,VALID,1004.11,VALID,0,VALID,95.1627,VALID,0,VALID,23.1179,VALID,27,VALID,0.411328,
2009-06-24, 03:04:04,VALID,1004.1,VALID,0,VALID,95.1779,VALID,0,VALID,23.1374,VALID,27,VALID,0.511328,
2009-06-24, 03:05:04,VALID,1004.13,VALID,0,VALID,95.1627,VALID,0,VALID,23.1586,VALID,27,VALID,0.398438,
2009-06-24, 03:06:04,VALID,1004.11,VALID,0,VALID,95.1932,VALID,0,VALID,23.178,VALID,27,VALID,0.501172,
2009-06-24, 03:07:04,VALID,1004.14,VALID,0,VALID,95.1703,VALID,0,VALID,23.1975,VALID,27,VALID,0.383594,
2009-06-24, 03:08:04,VALID,1004.13,VALID,0,VALID,95.1703,VALID,0,VALID,23.178,VALID,27,VALID,0.321094,
2009-06-24, 03:09:04,VALID,1004.14,VALID,0,VALID,95.1855,VALID,0,VALID,23.1586,VALID,27,VALID,0.407422,
2009-06-24, 03:10:04,VALID,1004.13,VALID,0,VALID,95.1627,VALID,0,VALID,23.0984,VALID,27,VALID,0.301953,
2009-06-24, 03:11:04,VALID,1004.14,VALID,0,VALID,95.1474,VALID,0,VALID,23.0807,VALID,27,VALID,0.182031,
2009-06-24, 03:12:04,VALID,1004.15,VALID,0,VALID,95.1474,VALID,0,VALID,23.0807,VALID,27,VALID,0.559375,
2009-06-24, 03:13:04,VALID,1004.15,VALID,0,VALID,95.155,VALID,0,VALID,23.0807,VALID,27,VALID,0.397656,
2009-06-24, 03:14:04,VALID,1004.15,VALID,0,VALID,95.1474,VALID,0,VALID,23.1019,VALID,27,VALID,0.102344,
2009-06-24, 03:15:04,VALID,1004.13,VALID,0,VALID,95.1627,VALID,0,VALID,23.1002,VALID,27,VALID,0.397656,
2009-06-24, 03:16:04,VALID,1004.14,VALID,0,VALID,95.1855,VALID,0.100563,VALID,23.1586,VALID,27,VALID,0.454297,
2009-06-24, 03:17:04,VALID,1004.15,VALID,0,VALID,95.2008,VALID,0,VALID,23.2754,VALID,25,VALID,0.715234,
2009-06-24, 03:18:04,VALID,1004.16,VALID,0,VALID,95.2084,VALID,0,VALID,23.2559,VALID,15,VALID,0.444531,
2009-06-24, 03:19:04,VALID,1004.16,VALID,0,VALID,95.2237,VALID,0,VALID,23.2559,VALID,15,VALID,0.394922,
2009-06-24, 03:20:04,VALID,1004.16,VALID,0,VALID,95.2161,VALID,0,VALID,23.2152,VALID,15,VALID,0.507031,
2009-06-24, 03:21:04,VALID,1004.19,VALID,0,VALID,95.2008,VALID,0,VALID,23.217,VALID,20,VALID,0.278516,
2009-06-24, 03:22:04,VALID,1004.21,VALID,0,VALID,95.1855,VALID,0,VALID,23.1975,VALID,20,VALID,0.250781,
2009-06-24, 03:23:04,VALID,1004.19,VALID,0,VALID,95.1855,VALID,0,VALID,23.1957,VALID,20,VALID,0.230859,
2009-06-24, 03:24:04,VALID,1004.24,VALID,0,VALID,95.2008,VALID,0,VALID,23.2559,VALID,25,VALID,0.805078,
2009-06-24, 03:25:04,VALID,1004.26,VALID,0,VALID,95.1932,VALID,0,VALID,23.2736,VALID,26,VALID,0.245312,
2009-06-24, 03:26:04,VALID,1004.27,VALID,0,VALID,95.2008,VALID,0,VALID,23.2754,VALID,26,VALID,0.383984,
2009-06-24, 03:27:04,VALID,1004.29,VALID,0,VALID,95.1932,VALID,0,VALID,23.2541,VALID,26,VALID,0.129297,
2009-06-24, 03:28:04,VALID,1004.23,VALID,0,VALID,95.1855,VALID,0,VALID,23.2948,VALID,26,VALID,0.181641,
2009-06-24, 03:29:04,VALID,1004.2,VALID,0,VALID,95.1703,VALID,0,VALID,23.2948,VALID,26,VALID,0,
2009-06-24, 03:30:04,VALID,1004.19,VALID,0,VALID,95.1779,VALID,0,VALID,23.2559,VALID,26,VALID,0.15,
2009-06-24, 03:31:04,VALID,1004.2,VALID,0,VALID,95.155,VALID,0,VALID,23.2771,VALID,26,VALID,0.220703,
2009-06-24, 03:32:04,VALID,1004.17,VALID,0,VALID,95.1398,VALID,0,VALID,23.2541,VALID,26,VALID,0.352344,
2009-06-24, 03:33:04,VALID,1004.16,VALID,0,VALID,95.155,VALID,0,VALID,23.2736,VALID,26,VALID,0.589063,
2009-06-24, 03:34:04,VALID,1004.17,VALID,0,VALID,95.1703,VALID,0,VALID,23.2931,VALID,26,VALID,0.424609,
2009-06-24, 03:35:04,VALID,1004.18,VALID,0,VALID,95.155,VALID,0,VALID,23.2541,VALID,26,VALID,0.473437,
2009-06-24, 03:36:04,VALID,1004.17,VALID,0,VALID,95.1474,VALID,0,VALID,23.2931,VALID,26,VALID,0.270703,
2009-06-24, 03:37:04,VALID,1004.17,VALID,0,VALID,95.2008,VALID,0,VALID,23.332,VALID,26,VALID,0.405078,
2009-06-24, 03:38:04,VALID,1004.16,VALID,0,VALID,95.1932,VALID,0,VALID,23.3921,VALID,26,VALID,0.336328,
2009-06-24, 03:39:04,VALID,1004.14,VALID,0,VALID,95.1932,VALID,0,VALID,23.3904,VALID,26,VALID,0.385156,
2009-06-24, 03:40:04,VALID,1004.13,VALID,0,VALID,95.2084,VALID,0,VALID,23.4098,VALID,26,VALID,0.291406,
2009-06-24, 03:41:04,VALID,1004.13,VALID,0,VALID,95.1855,VALID,0,VALID,23.3904,VALID,26,VALID,0.480078,
2009-06-24, 03:42:04,VALID,1004.12,VALID,0,VALID,95.2084,VALID,0,VALID,23.4682,VALID,16,VALID,0.446094,
2009-06-24, 03:43:04,VALID,1004.08,VALID,0,VALID,95.2084,VALID,0,VALID,23.5089,VALID,14,VALID,0.421484,
2009-06-24, 03:44:04,VALID,1004.09,VALID,0,VALID,95.1932,VALID,0,VALID,23.47,VALID,14,VALID,0.369922,
2009-06-24, 03:45:04,VALID,1004.12,VALID,0,VALID,95.1779,VALID,0,VALID,23.47,VALID,15,VALID,0.247656,
2009-06-24, 03:46:04,VALID,1004.12,VALID,0,VALID,95.1779,VALID,0,VALID,23.5284,VALID,38,VALID,0.388672,
2009-06-24, 03:47:04,VALID,1004.1,VALID,0,VALID,95.1627,VALID,0,VALID,23.5266,VALID,38,VALID,0.210156,